Location: Unspecified
(0.0000°N, 0.0000°E)
Time: 06:21:52
(UTC+00:00)

Vanguard 2 Rocket - Pass Details

Date: 03 October 2023
Orbit: 552 x 3312 km, 32.9° (Epoch: 06 December)

Event Time Altitude Azimuth Distance (km) Brightness Sun altitude
Rises 08:37:08 0° 276° (W) 4,668 10.1 41.9°
Reaches altitude 10° 08:40:32 10° 289° (WNW) 4,066 9.9 42.7°
Maximum altitude 08:49:49 27° 342° (NNW) 3,783 10.1 45.0°
Drops below altitude 10° 09:03:13 10° 32° (NNE) 5,913 11.4 48.4°
Sets 09:09:47 0° 43° (NE) 7,184 11.8 50.0°
